| time (UTC) | temp C | wind direction | speed KPH | gust KPH | rain 1hr cm | rain 24hr cm | rain mn cm | humidity % | barometer mb |
| 20260507110331 | 2 | 225 | 0.0 | 4.8 | 0.00 | 0.00 | 0.00 | 81 | 1014.8 |
| 20260507110047 | 1 | 225 | 0.0 | 4.8 | 0.00 | 0.00 | 0.00 | 81 | 1015.2 |
| 20260507105816 | 1 | 225 | 1.6 | 4.8 | 0.00 | 0.00 | 0.00 | 81 | 1014.8 |
| 20260507105331 | 1 | 360 | 3.2 | 4.8 | 0.00 | 0.00 | 0.00 | 81 | 1014.8 |
| 20260507104841 | 1 | 227 | 3.2 | 4.8 | 0.00 | 0.00 | 0.00 | 81 | 1014.8 |
| 20260507104602 | 1 | 227 | 1.6 | 4.8 | 0.00 | 0.00 | 0.00 | 80 | 1015.2 |
| 20260507104353 | 1 | 227 | 3.2 | 4.8 | 0.00 | 0.00 | 0.00 | 80 | 1014.8 |
| 20260507103835 | 1 | 231 | 3.2 | 4.8 | 0.00 | 0.00 | 0.00 | 80 | 1014.8 |
| 20260507103345 | 1 | 232 | 3.2 | 4.8 | 0.00 | 0.00 | 0.00 | 80 | 1014.9 |
| 20260507103026 | 1 | 234 | 3.2 | 4.8 | 0.00 | 0.00 | 0.00 | 80 | 1015.3 |
| 20260507102824 | 1 | 234 | 3.2 | 4.8 | 0.00 | 0.00 | 0.00 | 79 | 1014.9 |
| 20260507102334 | 1 | 235 | 1.6 | 3.2 | 0.00 | 0.00 | 0.00 | 79 | 1014.8 |
| 20260507101821 | 1 | 235 | 1.6 | 3.2 | 0.00 | 0.00 | 0.00 | 79 | 1014.8 |
| 20260507101543 | 1 | 235 | 1.6 | 4.8 | 0.00 | 0.00 | 0.00 | 79 | 1015.2 |
| 20260507101326 | 1 | 234 | 1.6 | 4.8 | 0.00 | 0.00 | 0.00 | 78 | 1014.8 |
| 20260507100829 | 1 | 235 | 1.6 | 4.8 | 0.00 | 0.00 | 0.00 | 78 | 1014.8 |
| 20260507100322 | 1 | 235 | 3.2 | 4.8 | 0.00 | 0.00 | 0.00 | 78 | 1014.8 |
| 20260507100055 | 1 | 234 | 1.6 | 4.8 | 0.00 | 0.00 | 0.00 | 78 | 1015.3 |
| 20260507095831 | 1 | 235 | 1.6 | 4.8 | 0.00 | 0.00 | 0.00 | 78 | 1014.8 |
| 20260507095317 | 1 | 236 | 3.2 | 4.8 | 0.00 | 0.00 | 0.00 | 78 | 1014.9 |
| 20260507094829 | 1 | 236 | 3.2 | 4.8 | 0.00 | 0.00 | 0.00 | 78 | 1014.9 |
| 20260507094507 | 1 | 237 | 1.6 | 3.2 | 0.00 | 0.00 | 0.00 | 78 | 1015.3 |
| 20260507094359 | 1 | 237 | 3.2 | 3.2 | 0.00 | 0.00 | 0.00 | 78 | 1015.0 |
| 20260507093841 | 1 | 238 | 1.6 | 6.4 | 0.00 | 0.00 | 0.00 | 78 | 1014.9 |
| 20260507093353 | 2 | 236 | 3.2 | 6.4 | 0.00 | 0.00 | 0.00 | 77 | 1014.9 |
| 20260507093039 | 1 | 238 | 3.2 | 6.4 | 0.00 | 0.00 | 0.00 | 77 | 1015.2 |
| 20260507092816 | 2 | 238 | 3.2 | 6.4 | 0.00 | 0.00 | 0.00 | 77 | 1014.9 |
| 20260507092327 | 2 | 239 | 4.8 | 6.4 | 0.00 | 0.00 | 0.00 | 77 | 1014.9 |
| 20260507091817 | 2 | 240 | 3.2 | 6.4 | 0.00 | 0.00 | 0.00 | 77 | 1015.0 |
| 20260507091559 | 1 | 360 | 3.2 | 6.4 | 0.00 | 0.00 | 0.00 | 77 | 1015.3 |
| 20260507091326 | 2 | 243 | 4.8 | 6.4 | 0.00 | 0.00 | 0.00 | 76 | 1015.0 |
| 20260507090830 | 2 | 261 | 3.2 | 4.8 | 0.00 | 0.00 | 0.00 | 76 | 1015.1 |
| 20260507090344 | 2 | 281 | 0.0 | 0.0 | 0.00 | 0.00 | 0.00 | 75 | 1014.9 |
| 20260507090057 | 1 | 281 | 0.0 | 0.0 | 0.00 | 0.00 | 0.00 | 74 | 1015.3 |
| 20260507085830 | 2 | 281 | 0.0 | 0.0 | 0.00 | 0.00 | 0.00 | 74 | 1014.9 |
| 20260507085316 | 2 | 281 | 0.0 | 0.0 | 0.00 | 0.00 | 0.00 | 74 | 1014.9 |
| 20260507084829 | 2 | 281 | 0.0 | 0.0 | 0.00 | 0.00 | 0.00 | 73 | 1015.0 |
| 20260507084513 | 2 | 281 | 0.0 | 0.0 | 0.00 | 0.00 | 0.00 | 73 | 1015.3 |
| 20260507084322 | 2 | 281 | 0.0 | 0.0 | 0.00 | 0.00 | 0.00 | 73 | 1015.0 |
| 20260507083827 | 2 | 281 | 0.0 | 0.0 | 0.00 | 0.00 | 0.00 | 73 | 1015.1 |
| 20260507083331 | 2 | 281 | 0.0 | 0.0 | 0.00 | 0.00 | 0.00 | 72 | 1015.1 |
| 20260507083027 | 2 | 281 | 0.0 | 0.0 | 0.00 | 0.00 | 0.00 | 72 | 1015.3 |
| 20260507082823 | 2 | 281 | 0.0 | 0.0 | 0.00 | 0.00 | 0.00 | 72 | 1015.0 |
| 20260507082328 | 2 | 281 | 0.0 | 0.0 | 0.00 | 0.00 | 0.00 | 72 | 1014.9 |
| 20260507081840 | 2 | 281 | 0.0 | 0.0 | 0.00 | 0.00 | 0.00 | 72 | 1015.0 |
| 20260507081530 | 2 | 281 | 0.0 | 0.0 | 0.00 | 0.00 | 0.00 | 72 | 1015.2 |
| 20260507081323 | 2 | 281 | 0.0 | 0.0 | 0.00 | 0.00 | 0.00 | 71 | 1014.9 |
| 20260507080833 | 2 | 281 | 0.0 | 0.0 | 0.00 | 0.00 | 0.00 | 71 | 1014.9 |
| 20260507080322 | 2 | 281 | 0.0 | 3.2 | 0.00 | 0.00 | 0.00 | 71 | 1014.9 |
| 20260507080039 | 2 | 281 | 0.0 | 3.2 | 0.00 | 0.00 | 0.00 | 71 | 1015.2 |
| 20260507075827 | 2 | 281 | 1.6 | 3.2 | 0.00 | 0.00 | 0.00 | 71 | 1014.8 |
| 20260507075334 | 3 | 281 | 1.6 | 3.2 | 0.00 | 0.00 | 0.00 | 71 | 1014.8 |
| 20260507074839 | 3 | 280 | 1.6 | 3.2 | 0.00 | 0.00 | 0.00 | 71 | 1014.8 |
| 20260507074553 | 2 | 281 | 0.0 | 3.2 | 0.00 | 0.00 | 0.00 | 71 | 1015.1 |
| 20260507074350 | 3 | 281 | 0.0 | 0.0 | 0.00 | 0.00 | 0.00 | 71 | 1014.8 |
| 20260507073822 | 3 | 281 | 0.0 | 0.0 | 0.00 | 0.00 | 0.00 | 71 | 1014.9 |
| 20260507073329 | 3 | 280 | 0.0 | 0.0 | 0.00 | 0.00 | 0.00 | 71 | 1014.9 |
| 20260507073035 | 2 | 273 | 0.0 | 0.0 | 0.00 | 0.00 | 0.00 | 71 | 1015.2 |
| 20260507072841 | 3 | 271 | 0.0 | 0.0 | 0.00 | 0.00 | 0.00 | 70 | 1014.9 |
| 20260507072347 | 3 | 270 | 0.0 | 4.8 | 0.00 | 0.00 | 0.00 | 70 | 1014.9 |
| 20260507071830 | 3 | 360 | 3.2 | 4.8 | 0.00 | 0.00 | 0.00 | 70 | 1015.0 |
| 20260507071527 | 2 | 269 | 1.6 | 4.8 | 0.00 | 0.00 | 0.00 | 71 | 1015.3 |
| 20260507071334 | 3 | 270 | 1.6 | 4.8 | 0.00 | 0.00 | 0.00 | 70 | 1015.1 |
| 20260507070820 | 3 | 268 | 1.6 | 4.8 | 0.00 | 0.00 | 0.00 | 70 | 1015.1 |
| 20260507070325 | 3 | 268 | 3.2 | 6.4 | 0.00 | 0.00 | 0.00 | 70 | 1015.1 |
| 20260507070037 | 3 | 266 | 1.6 | 6.4 | 0.00 | 0.00 | 0.00 | 70 | 1015.5 |
| 20260507065833 | 3 | 267 | 3.2 | 6.4 | 0.00 | 0.00 | 0.00 | 70 | 1015.3 |
| 20260507065325 | 3 | 266 | 3.2 | 6.4 | 0.00 | 0.00 | 0.00 | 69 | 1015.2 |
| 20260507064830 | 3 | 360 | 3.2 | 4.8 | 0.00 | 0.00 | 0.00 | 69 | 1015.2 |
| 20260507064616 | 3 | 264 | 1.6 | 4.8 | 0.00 | 0.00 | 0.00 | 69 | 1015.5 |
| 20260507064316 | 3 | 360 | 3.2 | 4.8 | 0.00 | 0.00 | 0.00 | 69 | 1015.2 |
| 20260507063818 | 3 | 263 | 3.2 | 4.8 | 0.00 | 0.00 | 0.00 | 69 | 1015.2 |
| 20260507063326 | 3 | 265 | 3.2 | 4.8 | 0.00 | 0.00 | 0.00 | 68 | 1015.3 |
| 20260507063004 | 3 | 265 | 1.6 | 4.8 | 0.00 | 0.00 | 0.00 | 68 | 1015.5 |
| 20260507062833 | 3 | 265 | 3.2 | 4.8 | 0.00 | 0.00 | 0.00 | 68 | 1015.3 |
| 20260507062316 | 3 | 276 | 0.0 | 0.0 | 0.00 | 0.00 | 0.00 | 69 | 1015.3 |
| 20260507061825 | 3 | 274 | 0.0 | 0.0 | 0.00 | 0.00 | 0.00 | 68 | 1015.3 |
| 20260507061513 | 3 | 275 | 0.0 | 0.0 | 0.00 | 0.00 | 0.00 | 68 | 1015.6 |
| 20260507061334 | 3 | 275 | 0.0 | 0.0 | 0.00 | 0.00 | 0.00 | 68 | 1015.3 |
| 20260507060822 | 3 | 275 | 0.0 | 0.0 | 0.00 | 0.00 | 0.00 | 67 | 1015.3 |
| 20260507060329 | 3 | 276 | 0.0 | 0.0 | 0.00 | 0.00 | 0.00 | 67 | 1015.3 |
| 20260507060031 | 3 | 275 | 0.0 | 0.0 | 0.00 | 0.00 | 0.00 | 67 | 1015.6 |
| 20260507055825 | 3 | 275 | 0.0 | 0.0 | 0.00 | 0.00 | 0.00 | 67 | 1015.4 |
| 20260507055328 | 3 | 275 | 0.0 | 0.0 | 0.00 | 0.00 | 0.00 | 67 | 1015.4 |
| 20260507054817 | 3 | 276 | 0.0 | 0.0 | 0.00 | 0.00 | 0.00 | 66 | 1015.4 |
| 20260507054542 | 3 | 276 | 0.0 | 0.0 | 0.00 | 0.00 | 0.00 | 66 | 1015.6 |
| 20260507054332 | 3 | 276 | 0.0 | 0.0 | 0.00 | 0.00 | 0.00 | 66 | 1015.3 |
| 20260507053330 | 4 | 276 | 0.0 | 0.0 | 0.00 | 0.00 | 0.00 | 65 | 1015.3 |
| 20260507053008 | 3 | 276 | 0.0 | 0.0 | 0.00 | 0.00 | 0.00 | 64 | 1015.6 |
| 20260507052822 | 4 | 276 | 0.0 | 0.0 | 0.00 | 0.00 | 0.00 | 64 | 1015.4 |
| 20260507052338 | 4 | 276 | 0.0 | 0.0 | 0.00 | 0.00 | 0.00 | 63 | 1015.4 |
| 20260507051828 | 4 | 276 | 0.0 | 0.0 | 0.00 | 0.00 | 0.00 | 63 | 1015.4 |
| 20260507051503 | 4 | 276 | 0.0 | 0.0 | 0.00 | 0.00 | 0.00 | 62 | 1015.6 |
| 20260507051328 | 4 | 276 | 0.0 | 0.0 | 0.00 | 0.00 | 0.00 | 62 | 1015.4 |
| 20260507050819 | 5 | 276 | 0.0 | 0.0 | 0.00 | 0.00 | 0.00 | 62 | 1015.4 |
| 20260507050325 | 5 | 276 | 0.0 | 0.0 | 0.00 | 0.00 | 0.00 | 62 | 1015.4 |
| 20260507050025 | 5 | 276 | 0.0 | 0.0 | 0.00 | 0.00 | 0.00 | 62 | 1015.7 |
| 20260507045825 | 5 | 276 | 0.0 | 0.0 | 0.00 | 0.00 | 0.00 | 61 | 1015.5 |
| 20260507045319 | 5 | 276 | 0.0 | 0.0 | 0.00 | 0.00 | 0.00 | 61 | 1015.4 |
| 20260507044826 | 5 | 276 | 0.0 | 0.0 | 0.00 | 0.00 | 0.00 | 60 | 1015.4 |
| 20260507044539 | 5 | 276 | 0.0 | 0.0 | 0.00 | 0.00 | 0.00 | 60 | 1015.6 |
| 20260507044318 | 5 | 276 | 0.0 | 0.0 | 0.00 | 0.00 | 0.00 | 60 | 1015.3 |
| 20260507043820 | 5 | 276 | 0.0 | 4.8 | 0.00 | 0.00 | 0.00 | 59 | 1015.4 |
| 20260507043326 | 6 | 277 | 1.6 | 4.8 | 0.00 | 0.00 | 0.00 | 58 | 1015.4 |
| 20260507043033 | 5 | 277 | 1.6 | 3.2 | 0.00 | 0.00 | 0.00 | 58 | 1015.6 |
| 20260507042830 | 6 | 276 | 3.2 | 3.2 | 0.00 | 0.00 | 0.00 | 57 | 1015.3 |
| 20260507042403 | 6 | 277 | 1.6 | 4.8 | 0.00 | 0.00 | 0.00 | 56 | 1015.3 |
| 20260507041845 | 6 | 277 | 1.6 | 4.8 | 0.00 | 0.00 | 0.00 | 56 | 1015.3 |
| 20260507041518 | 6 | 277 | 1.6 | 4.8 | 0.00 | 0.00 | 0.00 | 55 | 1015.6 |
| 20260507041331 | 6 | 277 | 1.6 | 4.8 | 0.00 | 0.00 | 0.00 | 55 | 1015.4 |
| 20260507040817 | 6 | 275 | 1.6 | 6.4 | 0.00 | 0.00 | 0.00 | 55 | 1015.4 |
| 20260507040326 | 6 | 360 | 1.6 | 6.4 | 0.00 | 0.00 | 0.00 | 55 | 1015.3 |
| 20260507040028 | 6 | 360 | 1.6 | 4.8 | 0.00 | 0.00 | 0.00 | 55 | 1015.5 |
| 20260507035835 | 6 | 281 | 1.6 | 4.8 | 0.00 | 0.00 | 0.00 | 54 | 1015.3 |
| 20260507035331 | 7 | 294 | 1.6 | 6.4 | 0.00 | 0.00 | 0.00 | 54 | 1015.3 |
| 20260507034821 | 7 | 294 | 1.6 | 6.4 | 0.00 | 0.00 | 0.00 | 53 | 1015.3 |
| 20260507034557 | 7 | 293 | 1.6 | 6.4 | 0.00 | 0.00 | 0.00 | 53 | 1015.5 |
| 20260507034323 | 7 | 296 | 3.2 | 6.4 | 0.00 | 0.00 | 0.00 | 53 | 1015.3 |
| 20260507033818 | 7 | 290 | 1.6 | 6.4 | 0.00 | 0.00 | 0.00 | 53 | 1015.3 |
| 20260507033352 | 7 | 288 | 4.8 | 6.4 | 0.00 | 0.00 | 0.00 | 52 | 1015.4 |
| 20260507033047 | 7 | 281 | 1.6 | 6.4 | 0.00 | 0.00 | 0.00 | 51 | 1015.6 |
| 20260507032902 | 7 | 278 | 3.2 | 6.4 | 0.00 | 0.00 | 0.00 | 51 | 1015.4 |
| 20260507032347 | 7 | 287 | 1.6 | 6.4 | 0.00 | 0.00 | 0.00 | 51 | 1015.4 |
| 20260507031828 | 7 | 284 | 4.8 | 8.0 | 0.00 | 0.00 | 0.00 | 51 | 1015.4 |
| 20260507031514 | 7 | 290 | 1.6 | 8.0 | 0.00 | 0.00 | 0.00 | 51 | 1015.6 |
| 20260507031338 | 7 | 271 | 3.2 | 8.0 | 0.00 | 0.00 | 0.00 | 50 | 1015.4 |
| 20260507030817 | 7 | 270 | 3.2 | 8.0 | 0.00 | 0.00 | 0.00 | 50 | 1015.4 |
| 20260507030457 | 8 | 277 | 4.8 | 8.0 | 0.00 | 0.00 | 0.00 | 49 | 1015.3 |
| 20260507030023 | 7 | 294 | 3.2 | 9.7 | 0.00 | 0.00 | 0.00 | 49 | 1015.5 |
| 20260507025823 | 8 | 307 | 4.8 | 9.7 | 0.00 | 0.00 | 0.00 | 49 | 1015.4 |
| 20260507025329 | 8 | 279 | 3.2 | 6.4 | 0.00 | 0.00 | 0.00 | 49 | 1015.2 |
| 20260507024818 | 8 | 311 | 4.8 | 9.7 | 0.00 | 0.00 | 0.00 | 49 | 1015.3 |
| 20260507024537 | 8 | 299 | 1.6 | 9.7 | 0.00 | 0.00 | 0.00 | 48 | 1015.4 |
| 20260507024323 | 8 | 318 | 3.2 | 9.7 | 0.00 | 0.00 | 0.00 | 48 | 1015.3 |
| 20260507023824 | 8 | 283 | 4.8 | 11.3 | 0.00 | 0.00 | 0.00 | 48 | 1015.2 |
| 20260507023358 | 8 | 308 | 4.8 | 12.9 | 0.00 | 0.00 | 0.00 | 47 | 1015.1 |
| 20260507023032 | 8 | 360 | 4.8 | 12.9 | 0.00 | 0.00 | 0.00 | 47 | 1015.3 |
| 20260507022827 | 8 | 303 | 4.8 | 12.9 | 0.00 | 0.00 | 0.00 | 47 | 1015.0 |
| 20260507022339 | 8 | 275 | 3.2 | 9.7 | 0.00 | 0.00 | 0.00 | 47 | 1015.0 |
| 20260507021843 | 8 | 296 | 4.8 | 9.7 | 0.00 | 0.00 | 0.00 | 46 | 1014.8 |
| 20260507021524 | 8 | 284 | 4.8 | 11.3 | 0.00 | 0.00 | 0.00 | 46 | 1014.9 |
| 20260507021331 | 8 | 313 | 4.8 | 11.3 | 0.00 | 0.00 | 0.00 | 46 | 1014.7 |
| 20260507020820 | 8 | 281 | 6.4 | 12.9 | 0.00 | 0.00 | 0.00 | 46 | 1014.7 |
| 20260507020331 | 8 | 303 | 4.8 | 12.9 | 0.00 | 0.00 | 0.00 | 45 | 1014.6 |
| 20260507020049 | 8 | 281 | 6.4 | 17.7 | 0.00 | 0.00 | 0.00 | 45 | 1014.8 |
| 20260507015817 | 9 | 313 | 8.0 | 17.7 | 0.00 | 0.00 | 0.00 | 46 | 1014.6 |
| 20260507015321 | 9 | 325 | 9.7 | 17.7 | 0.00 | 0.00 | 0.00 | 45 | 1014.5 |
| 20260507014827 | 9 | 279 | 6.4 | 16.1 | 0.00 | 0.00 | 0.00 | 45 | 1014.4 |
| 20260507014607 | 9 | 277 | 8.0 | 17.7 | 0.00 | 0.00 | 0.00 | 45 | 1014.6 |
| 20260507014317 | 9 | 286 | 6.4 | 17.7 | 0.00 | 0.00 | 0.00 | 45 | 1014.4 |
| 20260507013820 | 9 | 263 | 6.4 | 12.9 | 0.00 | 0.00 | 0.00 | 45 | 1014.5 |
| 20260507013319 | 9 | 327 | 8.0 | 12.9 | 0.00 | 0.00 | 0.00 | 44 | 1014.4 |
| 20260507013034 | 9 | 265 | 4.8 | 16.1 | 0.00 | 0.00 | 0.00 | 44 | 1014.6 |
| 20260507012835 | 10 | 290 | 4.8 | 16.1 | 0.00 | 0.00 | 0.00 | 44 | 1014.4 |
| 20260507012345 | 10 | 299 | 8.0 | 19.3 | 0.00 | 0.00 | 0.00 | 44 | 1014.4 |
| 20260507011835 | 10 | 265 | 9.7 | 20.9 | 0.00 | 0.00 | 0.00 | 44 | 1014.4 |
| 20260507011529 | 9 | 261 | 9.7 | 20.9 | 0.00 | 0.00 | 0.00 | 44 | 1014.6 |
| 20260507011319 | 10 | 360 | 11.3 | 22.5 | 0.00 | 0.00 | 0.00 | 44 | 1014.4 |
| 20260507010832 | 10 | 285 | 11.3 | 22.5 | 0.00 | 0.00 | 0.00 | 43 | 1014.3 |
| 20260507010323 | 10 | 275 | 8.0 | 14.5 | 0.00 | 0.00 | 0.00 | 43 | 1014.3 |
| 20260507010015 | 10 | 265 | 8.0 | 20.9 | 0.00 | 0.00 | 0.00 | 43 | 1014.3 |
| 20260507005826 | 10 | 268 | 6.4 | 20.9 | 0.00 | 0.00 | 0.00 | 43 | 1014.2 |
| 20260507005320 | 10 | 283 | 11.3 | 24.1 | 0.00 | 0.00 | 0.00 | 43 | 1014.2 |
| 20260507004825 | 10 | 259 | 12.9 | 24.1 | 0.00 | 0.00 | 0.00 | 43 | 1014.2 |
| 20260507004533 | 10 | 317 | 9.7 | 17.7 | 0.00 | 0.00 | 0.00 | 43 | 1014.3 |
| 20260507004321 | 10 | 309 | 9.7 | 17.7 | 0.00 | 0.00 | 0.00 | 43 | 1014.2 |
| 20260507003831 | 10 | 252 | 12.9 | 25.7 | 0.00 | 0.00 | 0.00 | 42 | 1014.1 |
| 20260507003336 | 11 | 290 | 14.5 | 30.6 | 0.00 | 0.00 | 0.00 | 42 | 1014.2 |
| 20260507003050 | 10 | 285 | 19.3 | 30.6 | 0.00 | 0.00 | 0.00 | 42 | 1014.2 |
| 20260507002844 | 11 | 360 | 11.3 | 30.6 | 0.00 | 0.00 | 0.00 | 42 | 1014.1 |
| 20260507002328 | 11 | 360 | 16.1 | 30.6 | 0.00 | 0.00 | 0.00 | 41 | 1014.0 |
| 20260507001832 | 11 | 283 | 14.5 | 30.6 | 0.00 | 0.00 | 0.00 | 41 | 1014.0 |
| 20260507001539 | 11 | 360 | 16.1 | 30.6 | 0.00 | 0.00 | 0.00 | 41 | 1014.0 |
| 20260507001340 | 11 | 280 | 19.3 | 30.6 | 0.00 | 0.00 | 0.00 | 41 | 1013.8 |
| 20260507000829 | 11 | 325 | 14.5 | 30.6 | 0.00 | 0.00 | 0.00 | 41 | 1013.8 |
| 20260507000405 | 11 | 316 | 16.1 | 30.6 | 0.00 | 0.00 | 0.00 | 41 | 1013.7 |
| 20260507000019 | 11 | 294 | 9.7 | 30.6 | 0.00 | 0.00 | 0.00 | 41 | 1013.8 |
| 20260506235845 | 11 | 246 | 17.7 | 30.6 | 0.00 | 0.00 | 0.00 | 41 | 1013.6 |
| 20260506235329 | 11 | 288 | 16.1 | 30.6 | 0.00 | 0.00 | 0.00 | 40 | 1013.6 |
| 20260506234838 | 12 | 257 | 16.1 | 27.4 | 0.00 | 0.00 | 0.00 | 40 | 1013.5 |
| 20260506234538 | 11 | 298 | 11.3 | 27.4 | 0.00 | 0.00 | 0.00 | 40 | 1013.5 |
| 20260506234352 | 12 | 285 | 11.3 | 27.4 | 0.00 | 0.00 | 0.00 | 40 | 1013.4 |
| 20260506233818 | 12 | 360 | 12.9 | 24.1 | 0.00 | 0.00 | 0.00 | 41 | 1013.4 |
| 20260506233357 | 12 | 292 | 12.9 | 24.1 | 0.00 | 0.00 | 0.00 | 41 | 1013.4 |
| 20260506233011 | 11 | 324 | 8.0 | 27.4 | 0.00 | 0.00 | 0.00 | 41 | 1013.5 |
| 20260506232835 | 11 | 300 | 12.9 | 27.4 | 0.00 | 0.00 | 0.00 | 41 | 1013.3 |
| 20260506232323 | 12 | 307 | 11.3 | 25.7 | 0.00 | 0.00 | 0.00 | 40 | 1013.3 |
| 20260506231833 | 12 | 295 | 12.9 | 35.4 | 0.00 | 0.00 | 0.00 | 40 | 1013.2 |
| 20260506231528 | 11 | 256 | 12.9 | 35.4 | 0.00 | 0.00 | 0.00 | 40 | 1013.5 |
| 20260506231342 | 12 | 263 | 16.1 | 35.4 | 0.00 | 0.00 | 0.00 | 40 | 1013.2 |
| 20260506230831 | 12 | 311 | 9.7 | 22.5 | 0.00 | 0.00 | 0.00 | 40 | 1013.1 |
| 20260506230339 | 12 | 239 | 12.9 | 30.6 | 0.00 | 0.00 | 0.00 | 40 | 1013.0 |
| 20260506230058 | 12 | 276 | 14.5 | 30.6 | 0.00 | 0.00 | 0.00 | 40 | 1013.1 |
| 20260506225824 | 12 | 360 | 17.7 | 30.6 | 0.00 | 0.00 | 0.00 | 40 | 1012.9 |
| 20260506225352 | 12 | 360 | 14.5 | 25.7 | 0.00 | 0.00 | 0.00 | 40 | 1013.0 |
| 20260506224825 | 12 | 267 | 12.9 | 29.0 | 0.00 | 0.00 | 0.00 | 40 | 1013.0 |
| 20260506224323 | 12 | 269 | 14.5 | 29.0 | 0.00 | 0.00 | 0.00 | 40 | 1013.0 |
| 20260506223856 | 12 | 300 | 17.7 | 32.2 | 0.00 | 0.00 | 0.00 | 40 | 1013.0 |
| 20260506223328 | 12 | 291 | 14.5 | 29.0 | 0.00 | 0.00 | 0.00 | 39 | 1012.9 |
| 20260506222821 | 12 | 310 | 19.3 | 30.6 | 0.00 | 0.00 | 0.00 | 39 | 1012.9 |
| 20260506222353 | 12 | 279 | 14.5 | 33.8 | 0.00 | 0.00 | 0.00 | 39 | 1012.9 |
| 20260506221844 | 12 | 270 | 20.9 | 33.8 | 0.00 | 0.00 | 0.00 | 38 | 1012.8 |
| 20260506221335 | 12 | 281 | 14.5 | 29.0 | 0.00 | 0.00 | 0.00 | 39 | 1012.7 |
| 20260506220847 | 12 | 296 | 16.1 | 29.0 | 0.00 | 0.00 | 0.00 | 39 | 1012.6 |
| 20260506220322 | 12 | 281 | 16.1 | 30.6 | 0.00 | 0.00 | 0.00 | 39 | 1012.6 |
| 20260506215832 | 13 | 303 | 17.7 | 30.6 | 0.00 | 0.00 | 0.00 | 38 | 1012.5 |
| 20260506215347 | 13 | 292 | 16.1 | 24.1 | 0.00 | 0.00 | 0.00 | 39 | 1012.3 |
| 20260506214822 | 13 | 273 | 11.3 | 32.2 | 0.00 | 0.00 | 0.00 | 40 | 1011.2 |
| 20260506214333 | 12 | 292 | 16.1 | 32.2 | 0.00 | 0.00 | 0.00 | 39 | 1012.3 |
| 20260506213845 | 13 | 280 | 16.1 | 35.4 | 0.00 | 0.00 | 0.00 | 39 | 1012.4 |
| 20260506213337 | 13 | 360 | 12.9 | 32.2 | 0.00 | 0.00 | 0.00 | 39 | 1011.7 |
| 20260506212827 | 12 | 360 | 9.7 | 37.0 | 0.00 | 0.00 | 0.00 | 39 | 1012.5 |
| 20260506212319 | 13 | 245 | 19.3 | 38.6 | 0.00 | 0.00 | 0.00 | 38 | 1012.4 |
| 20260506211851 | 13 | 241 | 19.3 | 38.6 | 0.00 | 0.00 | 0.00 | 38 | 1011.0 |
| 20260506211322 | 13 | 263 | 12.9 | 25.7 | 0.00 | 0.00 | 0.00 | 39 | 1012.2 |
| 20260506210854 | 13 | 294 | 16.1 | 32.2 | 0.00 | 0.00 | 0.00 | 38 | 1012.4 |
| 20260506210326 | 13 | 266 | 17.7 | 32.2 | 0.00 | 0.00 | 0.00 | 38 | 1012.4 |
| 20260506145331 | 11 | 360 | 8.0 | 17.7 | 0.00 | 0.00 | 0.00 | 38 | 1013.7 |
| 20260506144819 | 11 | 360 | 11.3 | 17.7 | 0.00 | 0.00 | 0.00 | 38 | 1013.7 |
| 20260506144519 | 11 | 267 | 4.8 | 16.1 | 0.00 | 0.00 | 0.00 | 38 | 1013.9 |
| 20260506144335 | 11 | 298 | 4.8 | 16.1 | 0.00 | 0.00 | 0.00 | 38 | 1013.7 |
| 20260506143820 | 11 | 321 | 4.8 | 16.1 | 0.00 | 0.00 | 0.00 | 40 | 1013.8 |
| 20260506143329 | 11 | 311 | 9.7 | 19.3 | 0.00 | 0.00 | 0.00 | 40 | 1013.7 |
| 20260506143053 | 11 | 360 | 6.4 | 20.9 | 0.00 | 0.00 | 0.00 | 38 | 1013.8 |
| 20260506142821 | 11 | 291 | 11.3 | 20.9 | 0.00 | 0.00 | 0.00 | 38 | 1013.7 |
| 20260506142327 | 11 | 360 | 6.4 | 14.5 | 0.00 | 0.00 | 0.00 | 38 | 1013.7 |
| 20260506141829 | 11 | 275 | 6.4 | 12.9 | 0.00 | 0.00 | 0.00 | 40 | 1013.7 |
| 20260506141507 | 11 | 259 | 8.0 | 12.9 | 0.00 | 0.00 | 0.00 | 40 | 1013.8 |
| 20260506141319 | 12 | 229 | 6.4 | 12.9 | 0.00 | 0.00 | 0.00 | 41 | 1013.7 |
| 20260506140823 | 11 | 248 | 3.2 | 12.9 | 0.00 | 0.00 | 0.00 | 42 | 1013.7 |
| 20260506140325 | 11 | 254 | 6.4 | 12.9 | 0.00 | 0.00 | 0.00 | 40 | 1013.7 |
| 20260506140013 | 11 | 319 | 4.8 | 9.7 | 0.00 | 0.08 | 0.00 | 40 | 1013.8 |
| 20260506135833 | 11 | 293 | 6.4 | 9.7 | 0.00 | 0.08 | 0.00 | 40 | 1013.6 |
| 20260506135325 | 11 | 360 | 4.8 | 8.0 | 0.00 | 0.08 | 0.00 | 40 | 1013.6 |
| 20260506134826 | 11 | 265 | 3.2 | 6.4 | 0.00 | 0.08 | 0.00 | 41 | 1013.5 |
| 20260506134550 | 11 | 262 | 1.6 | 6.4 | 0.00 | 0.08 | 0.00 | 42 | 1013.6 |
| 20260506134331 | 11 | 167 | 0.0 | 0.0 | 0.00 | 0.08 | 0.00 | 45 | 1013.4 |
| 20260506133843 | 11 | 119 | 0.0 | 0.0 | 0.00 | 0.08 | 0.00 | 43 | 1013.2 |
| 20260506133351 | 11 | 74 | 0.0 | 1.6 | 0.00 | 0.08 | 0.00 | 45 | 1013.1 |
| 20260506133021 | 11 | 67 | 0.0 | 1.6 | 0.00 | 0.08 | 0.00 | 46 | 1013.3 |
| 20260506132826 | 11 | 67 | 0.0 | 1.6 | 0.00 | 0.08 | 0.00 | 46 | 1013.1 |
| 20260506132319 | 11 | 67 | 0.0 | 3.2 | 0.00 | 0.08 | 0.00 | 43 | 1013.0 |
| 20260506131828 | 11 | 67 | 1.6 | 3.2 | 0.00 | 0.08 | 0.00 | 46 | 1013.0 |
| 20260506131550 | 11 | 67 | 1.6 | 3.2 | 0.00 | 0.08 | 0.00 | 48 | 1013.1 |
| 20260506131330 | 11 | 67 | 1.6 | 3.2 | 0.00 | 0.08 | 0.00 | 49 | 1012.9 |
| 20260506130817 | 10 | 67 | 0.0 | 3.2 | 0.00 | 0.08 | 0.00 | 51 | 1012.9 |
| 20260506130326 | 10 | 55 | 0.0 | 3.2 | 0.00 | 0.08 | 0.00 | 52 | 1013.0 |
| 20260506130059 | 9 | 55 | 1.6 | 3.2 | 0.00 | 0.25 | 0.00 | 54 | 1013.2 |
| 20260506130003 | 9 | 55 | 1.6 | 3.2 | 0.00 | 0.25 | 0.00 | 55 | 1013.2 |
| 20260506125819 | 10 | 52 | 1.6 | 3.2 | 0.00 | 0.25 | 0.00 | 56 | 1013.0 |
| 20260506125350 | 9 | 44 | 0.0 | 3.2 | 0.00 | 0.25 | 0.00 | 58 | 1012.9 |
| 20260506124833 | 8 | 44 | 0.0 | 3.2 | 0.00 | 0.25 | 0.00 | 61 | 1012.8 |
| 20260506124551 | 8 | 44 | 0.0 | 0.0 | 0.00 | 0.25 | 0.00 | 63 | 1013.0 |
| 20260506124335 | 8 | 44 | 0.0 | 0.0 | 0.00 | 0.25 | 0.00 | 64 | 1012.7 |
| 20260506123841 | 8 | 44 | 0.0 | 0.0 | 0.00 | 0.25 | 0.00 | 66 | 1012.7 |
| 20260506123355 | 7 | 44 | 0.0 | 0.0 | 0.00 | 0.25 | 0.00 | 66 | 1012.6 |
| 20260506123011 | 7 | 44 | 0.0 | 0.0 | 0.00 | 0.25 | 0.00 | 67 | 1012.7 |
| 20260506122817 | 7 | 44 | 0.0 | 0.0 | 0.00 | 0.25 | 0.00 | 68 | 1012.6 |
| 20260506122322 | 7 | 44 | 0.0 | 0.0 | 0.00 | 0.25 | 0.00 | 68 | 1012.6 |
| 20260506121830 | 7 | 44 | 0.0 | 0.0 | 0.00 | 0.25 | 0.00 | 68 | 1012.6 |
| 20260506121527 | 7 | 44 | 0.0 | 0.0 | 0.00 | 0.25 | 0.00 | 68 | 1012.6 |
| 20260506121321 | 7 | 44 | 0.0 | 0.0 | 0.00 | 0.25 | 0.00 | 68 | 1012.4 |
| 20260506120826 | 7 | 44 | 0.0 | 0.0 | 0.00 | 0.25 | 0.00 | 68 | 1012.4 |
| 20260506120333 | 7 | 44 | 0.0 | 0.0 | 0.00 | 0.25 | 0.00 | 68 | 1012.4 |
| 20260506120041 | 6 | 44 | 0.0 | 0.0 | 0.00 | 0.30 | 0.00 | 68 | 1012.5 |
| 20260506115819 | 6 | 44 | 0.0 | 0.0 | 0.00 | 0.30 | 0.00 | 69 | 1012.4 |
| 20260506115326 | 6 | 44 | 0.0 | 0.0 | 0.00 | 0.30 | 0.00 | 70 | 1012.4 |
| 20260506114828 | 6 | 44 | 0.0 | 0.0 | 0.00 | 0.30 | 0.00 | 70 | 1012.4 |
| 20260506114552 | 6 | 44 | 0.0 | 0.0 | 0.00 | 0.30 | 0.00 | 70 | 1012.5 |
| 20260506114334 | 6 | 44 | 0.0 | 0.0 | 0.00 | 0.30 | 0.00 | 71 | 1012.3 |
| 20260506113823 | 6 | 44 | 0.0 | 0.0 | 0.00 | 0.30 | 0.00 | 71 | 1012.2 |
| 20260506113321 | 6 | 44 | 0.0 | 0.0 | 0.00 | 0.30 | 0.00 | 70 | 1012.2 |
| 20260506113004 | 5 | 44 | 0.0 | 0.0 | 0.00 | 0.30 | 0.00 | 71 | 1012.3 |
| 20260506112830 | 5 | 44 | 0.0 | 0.0 | 0.00 | 0.30 | 0.00 | 71 | 1012.2 |
| 20260506112328 | 5 | 44 | 0.0 | 0.0 | 0.00 | 0.30 | 0.00 | 71 | 1012.1 |
| 20260506111816 | 5 | 44 | 0.0 | 1.6 | 0.00 | 0.30 | 0.00 | 71 | 1012.1 |
| 20260506111519 | 5 | 44 | 0.0 | 1.6 | 0.00 | 0.30 | 0.00 | 71 | 1012.2 |
| 20260506111319 | 5 | 44 | 0.0 | 1.6 | 0.00 | 0.30 | 0.00 | 71 | 1012.0 |
| 20260506110828 | 5 | 44 | 0.0 | 0.0 | 0.00 | 0.30 | 0.00 | 71 | 1012.0 |